Flag for U.S.A. Weather past 2 weeks in Greeley, Colorado, U.S.A.

Now
39 °F

Clear.


Feels Like: 39 °F
Forecast: 41 / 73 °F
Wind: No wind

Location: Greeley / Weld


UV Index: 5 (Moderate)

Visibility: 10 mi


Pressure: 30.02 "Hg

Humidity: 81%

Dew point: 34 °F

Location of GreeleyLocation

Historic Weather in Greeley

°F

Greeley temperature yesterday

Maximum temperature yesterday: 68 °F (at 3:55 PM)
Minimum temperature yesterday: 43 °F (at 1:35 AM)
Average temperature yesterday: 54 °F

Past Weeks' High & Low Weather Summary

 TemperatureHumidityPressure
High81 °F (Apr 18, 1:55 PM)81% (Apr 13, 4:35 AM)30.31 "Hg (Apr 13, 4:35 AM)
Low19 °F (Apr 14, 5:55 AM)13% (Apr 9, 3:55 PM)29.64 "Hg (Apr 12, 4:35 PM)
Average48 °F48%29.98 "Hg
* Reported Apr 5 4:15 AM — Apr 20 4:35 AM, Greeley, Weather by CustomWeather, © 2014

Note: Actual official high and low records may vary slightly from our data, if they occured in-between our weather recording intervals... More about our weather records

Advertising

Historic Weather Conditions — Data for Previous 24 hours

 ConditionsComfort  
Time TempWeatherWind HumidityBarometerVisibility
4:35 AM
Apr 20
41 °FClear.No wind81%30.03 "Hg10 mi
4:15 AM43 °FClear.No wind76%30.03 "Hg10 mi
3:55 AM43 °FClear.7 mph76%30.03 "Hg10 mi
3:35 AM41 °FClear.8 mph81%30.03 "Hg10 mi
3:15 AM43 °FClear.No wind76%30.04 "Hg10 mi
2:55 AM45 °FClear.No wind76%30.04 "Hg10 mi
2:35 AM46 °FClear.5 mph76%30.04 "Hg10 mi
2:15 AM46 °FClear.5 mph76%30.05 "Hg10 mi
1:55 AM48 °FPassing clouds.5 mph71%30.05 "Hg10 mi
1:35 AM52 °FClear.No wind72%30.06 "Hg10 mi
1:15 AM52 °FClear.5 mph72%30.06 "Hg10 mi
12:55 AM52 °FPartly cloudy.5 mph77%30.06 "Hg10 mi
12:35 AM54 °FMostly cloudy.9 mph72%30.06 "Hg10 mi
12:15 AM54 °FMostly cloudy.10 mph72%30.06 "Hg10 mi
11:55 PM
Apr 19
54 °FPartly cloudy.7 mph72%30.06 "Hg10 mi
11:35 PM54 °FMostly cloudy.5 mph72%30.06 "Hg10 mi
11:15 PM54 °FOvercast.10 mph72%30.07 "Hg10 mi
10:55 PM54 °FPassing clouds.13 mph72%30.07 "Hg10 mi
10:35 PM54 °FPassing clouds.10 mph67%30.09 "Hg10 mi
10:15 PM52 °FPassing clouds.7 mph77%30.09 "Hg10 mi
9:55 PM54 °FOvercast.7 mph72%30.09 "Hg10 mi
9:35 PM54 °FPassing clouds.7 mph72%30.09 "Hg10 mi
9:15 PM54 °FPassing clouds.8 mph72%30.09 "Hg10 mi
8:55 PM55 °FPartly cloudy.6 mph72%30.08 "Hg10 mi
8:35 PM54 °FMostly cloudy.No wind72%30.07 "Hg10 mi
8:15 PM54 °FOvercast.No wind72%30.06 "Hg10 mi
7:55 PM55 °FMostly cloudy.6 mph67%30.06 "Hg10 mi
7:35 PM57 °FOvercast.6 mph59%30.06 "Hg10 mi
7:15 PM57 °FOvercast.6 mph59%30.07 "Hg10 mi
6:55 PM57 °FPartly sunny.9 mph55%30.07 "Hg10 mi
6:35 PM61 °FPassing clouds.10 mph39%30.06 "Hg10 mi
6:15 PM61 °FScattered clouds.12 mph42%30.05 "Hg10 mi
5:55 PM63 °FScattered clouds.14 mph39%30.04 "Hg10 mi
5:35 PM63 °FScattered clouds.13 mph39%30.04 "Hg10 mi
5:15 PM64 °FPassing clouds.10 mph37%30.03 "Hg10 mi
4:55 PM66 °FSunny.12 mph35%30.02 "Hg10 mi
4:35 PM68 °FSunny.12 mph35%30.02 "Hg10 mi
4:15 PM68 °FSunny.8 mph33%30.02 "Hg10 mi
3:55 PM68 °FSunny.7 mph35%30.02 "Hg10 mi
3:35 PM66 °FSunny.8 mph37%30.02 "Hg10 mi
3:15 PM66 °FSunny.7 mph37%30.03 "Hg10 mi
2:55 PM64 °FSunny.7 mph40%30.03 "Hg10 mi
2:35 PM64 °FSunny.7 mph43%30.04 "Hg10 mi
2:15 PM64 °FSunny.8 mph43%30.05 "Hg10 mi
1:55 PM64 °FSunny.9 mph43%30.06 "Hg10 mi
1:35 PM63 °FSunny.10 mph45%30.06 "Hg10 mi
1:15 PM63 °FSunny.6 mph45%30.07 "Hg10 mi
12:55 PM63 °FPassing clouds.6 mph45%30.07 "Hg10 mi
12:35 PM61 °FPassing clouds.8 mph48%30.08 "Hg10 mi
12:15 PM61 °FPassing clouds.7 mph45%30.08 "Hg10 mi
11:55 AM61 °FPassing clouds.6 mph45%30.09 "Hg10 mi
11:35 AM59 °FPassing clouds.8 mph45%30.09 "Hg10 mi
11:15 AM57 °FPassing clouds.5 mph51%30.10 "Hg10 mi
10:55 AM57 °FPassing clouds.6 mph51%30.10 "Hg10 mi
10:35 AM54 °FPassing clouds.6 mph54%30.09 "Hg10 mi
10:15 AM54 °FPassing clouds.8 mph54%30.08 "Hg10 mi
9:55 AM52 °FPassing clouds.13 mph54%30.07 "Hg10 mi
9:35 AM52 °FBroken clouds.10 mph54%30.07 "Hg10 mi
9:15 AM52 °FPassing clouds.10 mph54%30.06 "Hg10 mi
8:55 AM52 °FSunny.8 mph50%30.05 "Hg10 mi
8:35 AM50 °FSunny.8 mph54%30.04 "Hg10 mi
8:15 AM48 °FSunny.9 mph62%30.03 "Hg10 mi
7:55 AM50 °FSunny.12 mph58%30.02 "Hg10 mi
7:35 AM48 °FSunny.5 mph62%30.01 "Hg10 mi
7:15 AM45 °FSunny.5 mph66%30.00 "Hg10 mi
6:55 AM45 °FClear.No wind61%29.98 "Hg10 mi
6:35 AM45 °FClear.5 mph57%29.96 "Hg10 mi
6:15 AM43 °FClear.3 mph61%29.96 "Hg10 mi
5:55 AM45 °FClear.3 mph61%29.94 "Hg10 mi
5:35 AM46 °FClear.5 mph57%29.93 "Hg10 mi
5:15 AM46 °FClear.7 mph53%29.93 "Hg10 mi
Weather by CustomWeather, © 2014

See weather overview